シャルネツキー彗星

C/2024 N3 ( Sarneczky )

English version
Home page
Updated on November 27, 2024

---------------------------------------------------------------------

・ プロフィール

発見日 2024年7月8日
発見光度 19.6等
発見者 Krisztian Sarneczky (Piszkesteto Observatory in Hungary)

・ 写真集

・ 軌道要素

Epoch 2024 Oct. 17.0 TT = JDT 2460600.5
T 2025 Apr. 11.33971 TT                                 Rudenko
q   5.0146600            (2000.0)            P               Q
z  -0.0001726      Peri.   86.87201     -0.01494053     -0.12965135
 +/-0.0000097      Node    82.60882     -0.34482535     -0.93006029
e   1.0008655      Incl.   88.72924     +0.93854795     -0.34377084
From 168 observations 2023 Oct. 9-2024 Nov. 11, mean residual 0".5.

・ 光度変化

        m1 = 8.0 + 5 logΔ + 10.0 log r

---------------------------------------------------------------------

軌道要素はM.P.E.C. 2024-V192に掲載されたものです。
光度グラフはComet for Windowsで作成したものです。

---------------------------------------------------------------------

Copyright(C) Seiichi Yoshida (comet@aerith.net). All rights reserved.